Location: Nairn
(57.5833°N, 3.8667°W)
Time: 01:53:55
(UTC+00:00)

Vanguard 1 Rocket - Pass Details

Date: 05 December 2020
Orbit: 655 x 4221 km, 34.3° (Epoch: 20 January)

Event Time Altitude Azimuth Distance (km) Brightness Sun altitude
Exits shadow 01:05:11 26° 129° (SE) 5,588 11.1 -53.2°
Drops below altitude 10° 01:13:10 10° 110° (ESE) 6,255 11.6 -52.8°
Sets 01:17:50 0° 102° (ESE) 6,848 12.0 -52.5°
